Tracking 30995 objects as of 5-Jul-2025
HD Live streaming from Space Station
objects crossing your sky now

COSMOS 1410

Track COSMOS 1410 now!
10-day predictions
COSMOS 1410 is classified as:


NORAD ID: 13589
Int'l Code: 1982-096A
Perigee: 1,499.2 km
Apogee: 1,508.4 km
Inclination: 82.6 °
Period: 115.9 minutes
Semi major axis: 7874 km
RCS: 11.571 m2 (large)
Launch date: September 24, 1982
Source: Commonwealth of Independent States (former USSR) (CIS)
Launch site: PLESETSK MISSILE AND SPACE COMPLEX (PKMTR)
Your satellite tracking list
COSMOS 1382 DEB
Track 1 satellite(s)




NASA's NSSDC Master Catalog

Two Line Element Set (TLE):
1 13589U 82096A   25185.92154721  .00000035  00000-0  18370-3 0  9993
2 13589  82.6116 324.7250 0005873 357.2627 122.3331 12.42345791940837
Source of the keplerian elements: AFSPC